Location: Clanezzo
(45.7500°N, 9.6000°E)
Time: 18:54:15
(UTC+00:00)

Cosmos 773 Rocket - Pass Details

Date: 28 September 2021
Orbit: 745 x 777 km, 74.1° (Epoch: 24 October)

Event Time Altitude Azimuth Distance (km) Brightness Sun altitude
Rises 18:27:17 0° 332° (NNW) 3,249 7.9 -14.7°
Reaches altitude 10° 18:29:47 10° 325° (NW) 2,323 7.2 -15.1°
Maximum altitude 18:34:40 40° 257° (WSW) 1,137 5.4 -16.0°
Drops below altitude 10° 18:39:33 10° 189° (S) 2,319 6.4 -16.8°
Sets 18:42:02 0° 182° (S) 3,243 7.1 -17.2°
